| time (UTC) | temp F | wind direction | speed MPH | gust MPH | rain 1hr in | rain 24hr in | rain mn in | humidity % | barometer mb |
| 20260505010005 | 44 | 360 | 17.0 | 25.0 | 0.00 | 0.00 | 0.00 | 44 | 998.7 |
| 20260505005504 | 44 | 360 | 20.0 | 25.0 | 0.00 | 0.00 | 0.00 | 44 | 998.8 |
| 20260505005002 | 44 | 360 | 17.0 | 26.0 | 0.00 | 0.00 | 0.00 | 44 | 998.6 |
| 20260505004502 | 44 | 360 | 17.0 | 26.0 | 0.00 | 0.00 | 0.00 | 44 | 998.7 |
| 20260505004202 | 45 | 360 | 17.0 | 24.0 | 0.00 | 0.00 | 0.00 | 43 | 998.6 |
| 20260505003503 | 45 | 360 | 16.0 | 24.0 | 0.00 | 0.00 | 0.00 | 43 | 998.4 |
| 20260505003100 | 45 | 360 | 18.0 | 25.0 | 0.00 | 0.00 | 0.00 | 42 | 998.5 |
| 20260505002559 | 45 | 360 | 20.0 | 28.0 | 0.00 | 0.00 | 0.00 | 42 | 998.4 |
| 20260505002058 | 46 | 360 | 21.0 | 28.0 | 0.00 | 0.00 | 0.00 | 41 | 998.3 |
| 20260505001558 | 46 | 360 | 19.0 | 29.0 | 0.00 | 0.00 | 0.00 | 41 | 998.2 |
| 20260505001056 | 46 | 360 | 23.0 | 29.0 | 0.00 | 0.00 | 0.00 | 41 | 998.2 |
| 20260505000555 | 46 | 360 | 19.0 | 29.0 | 0.00 | 0.00 | 0.00 | 41 | 998.2 |
| 20260505000106 | 47 | 360 | 21.0 | 29.0 | 0.00 | 0.00 | 0.00 | 40 | 998.2 |
| 20260504235554 | 47 | 360 | 21.0 | 32.0 | 0.00 | 0.00 | 0.00 | 41 | 998.1 |
| 20260504235054 | 48 | 360 | 23.0 | 32.0 | 0.00 | 0.00 | 0.00 | 39 | 997.9 |
| 20260504234614 | 47 | 360 | 22.0 | 30.0 | 0.00 | 0.00 | 0.00 | 40 | 997.9 |
| 20260504234153 | 47 | 360 | 24.0 | 31.0 | 0.00 | 0.00 | 0.00 | 40 | 997.8 |
| 20260504233552 | 47 | 360 | 23.0 | 31.0 | 0.00 | 0.00 | 0.00 | 41 | 997.8 |
| 20260504233051 | 49 | 360 | 22.0 | 34.0 | 0.00 | 0.00 | 0.00 | 39 | 997.8 |
| 20260504232549 | 49 | 360 | 25.0 | 34.0 | 0.00 | 0.00 | 0.00 | 40 | 997.8 |
| 20260504232048 | 50 | 294 | 19.0 | 29.0 | 0.00 | 0.00 | 0.00 | 40 | 997.8 |
| 20260504231559 | 49 | 360 | 17.0 | 33.0 | 0.00 | 0.00 | 0.00 | 41 | 997.6 |
| 20260504231050 | 49 | 360 | 23.0 | 33.0 | 0.00 | 0.00 | 0.00 | 40 | 997.7 |
| 20260504230548 | 49 | 360 | 25.0 | 32.0 | 0.00 | 0.00 | 0.00 | 40 | 997.7 |
| 20260504230048 | 49 | 360 | 23.0 | 31.0 | 0.00 | 0.00 | 0.00 | 42 | 997.8 |
| 20260504225548 | 50 | 360 | 22.0 | 31.0 | 0.00 | 0.00 | 0.00 | 39 | 997.5 |
| 20260504225047 | 50 | 304 | 21.0 | 29.0 | 0.00 | 0.00 | 0.00 | 39 | 997.6 |
| 20260504224548 | 50 | 319 | 23.0 | 33.0 | 0.00 | 0.00 | 0.00 | 41 | 997.6 |
| 20260504224148 | 48 | 360 | 21.0 | 31.0 | 0.00 | 0.00 | 0.00 | 44 | 997.6 |
| 20260504223548 | 48 | 360 | 21.0 | 31.0 | 0.00 | 0.00 | 0.00 | 44 | 997.7 |
| 20260504223047 | 50 | 296 | 24.0 | 31.0 | 0.00 | 0.00 | 0.00 | 41 | 997.5 |
| 20260504222548 | 50 | 298 | 23.0 | 32.0 | 0.00 | 0.00 | 0.00 | 41 | 997.5 |
| 20260504222047 | 50 | 317 | 23.0 | 32.0 | 0.00 | 0.00 | 0.00 | 43 | 997.6 |
| 20260504221556 | 49 | 360 | 19.0 | 31.0 | 0.00 | 0.00 | 0.00 | 44 | 997.6 |
| 20260504221047 | 49 | 360 | 21.0 | 33.0 | 0.00 | 0.00 | 0.00 | 44 | 997.6 |
| 20260504220545 | 50 | 360 | 23.0 | 33.0 | 0.00 | 0.00 | 0.00 | 44 | 997.6 |
| 20260504220045 | 49 | 360 | 24.0 | 36.0 | 0.00 | 0.00 | 0.00 | 44 | 997.5 |
| 20260504215544 | 49 | 360 | 23.0 | 36.0 | 0.00 | 0.00 | 0.00 | 43 | 997.4 |
| 20260504215045 | 49 | 360 | 27.0 | 36.0 | 0.00 | 0.00 | 0.00 | 43 | 997.4 |
| 20260504214545 | 50 | 360 | 23.0 | 35.0 | 0.00 | 0.00 | 0.00 | 43 | 997.4 |
| 20260504214145 | 49 | 360 | 22.0 | 32.0 | 0.00 | 0.00 | 0.00 | 42 | 997.4 |
| 20260504213544 | 49 | 360 | 23.0 | 31.0 | 0.00 | 0.00 | 0.00 | 41 | 997.4 |
| 20260504213044 | 50 | 360 | 24.0 | 36.0 | 0.00 | 0.00 | 0.00 | 42 | 997.3 |
| 20260504212544 | 49 | 360 | 26.0 | 36.0 | 0.00 | 0.00 | 0.00 | 43 | 997.4 |
| 20260504212041 | 50 | 304 | 24.0 | 34.0 | 0.00 | 0.00 | 0.00 | 40 | 997.4 |
| 20260504211548 | 50 | 360 | 22.0 | 34.0 | 0.00 | 0.00 | 0.00 | 42 | 997.4 |
| 20260504211041 | 50 | 360 | 23.0 | 38.0 | 0.00 | 0.00 | 0.00 | 41 | 997.3 |
| 20260504210541 | 50 | 360 | 29.0 | 38.0 | 0.00 | 0.00 | 0.00 | 41 | 997.4 |
| 20260504210100 | 50 | 360 | 29.0 | 36.0 | 0.00 | 0.00 | 0.00 | 41 | 997.3 |
| 20260504205539 | 50 | 360 | 28.0 | 36.0 | 0.00 | 0.00 | 0.00 | 39 | 997.3 |
| 20260504205041 | 50 | 360 | 21.0 | 35.0 | 0.00 | 0.00 | 0.00 | 41 | 997.3 |
| 20260504204546 | 50 | 360 | 28.0 | 35.0 | 0.00 | 0.00 | 0.00 | 40 | 997.3 |
| 20260504204137 | 51 | 360 | 23.0 | 38.0 | 0.00 | 0.00 | 0.00 | 41 | 997.4 |
| 20260504203536 | 51 | 360 | 25.0 | 38.0 | 0.00 | 0.00 | 0.00 | 41 | 997.3 |
| 20260504203040 | 51 | 360 | 26.0 | 36.0 | 0.00 | 0.00 | 0.00 | 41 | 997.3 |
| 20260504202534 | 51 | 360 | 24.0 | 36.0 | 0.00 | 0.00 | 0.00 | 40 | 997.2 |
| 20260504202035 | 50 | 360 | 23.0 | 33.0 | 0.00 | 0.00 | 0.00 | 43 | 997.3 |
| 20260504201534 | 50 | 360 | 27.0 | 36.0 | 0.00 | 0.00 | 0.00 | 41 | 997.3 |
| 20260504201034 | 50 | 360 | 28.0 | 36.0 | 0.00 | 0.00 | 0.00 | 42 | 997.4 |
| 20260504200534 | 50 | 360 | 26.0 | 34.0 | 0.00 | 0.00 | 0.00 | 42 | 997.3 |
| 20260504200033 | 48 | 360 | 21.0 | 35.0 | 0.00 | 0.00 | 0.00 | 44 | 997.5 |
| 20260504195534 | 48 | 360 | 24.0 | 32.0 | 0.00 | 0.00 | 0.00 | 44 | 997.5 |
| 20260504195033 | 49 | 360 | 24.0 | 32.0 | 0.00 | 0.00 | 0.00 | 45 | 997.5 |
| 20260504194553 | 48 | 360 | 22.0 | 38.0 | 0.00 | 0.00 | 0.00 | 45 | 997.5 |
| 20260504194134 | 48 | 360 | 21.0 | 35.0 | 0.00 | 0.00 | 0.00 | 46 | 997.5 |
| 20260504193533 | 47 | 360 | 21.0 | 35.0 | 0.00 | 0.00 | 0.00 | 46 | 997.5 |
| 20260504193032 | 47 | 360 | 23.0 | 35.0 | 0.00 | 0.00 | 0.00 | 46 | 997.3 |
| 20260504192531 | 47 | 360 | 23.0 | 33.0 | 0.00 | 0.00 | 0.00 | 45 | 997.5 |
| 20260504192032 | 47 | 360 | 20.0 | 34.0 | 0.00 | 0.00 | 0.00 | 47 | 997.4 |
| 20260504191541 | 47 | 360 | 21.0 | 34.0 | 0.00 | 0.00 | 0.00 | 47 | 997.4 |
| 20260504191031 | 46 | 360 | 21.0 | 31.0 | 0.00 | 0.00 | 0.00 | 47 | 997.6 |
| 20260504190532 | 46 | 360 | 23.0 | 33.0 | 0.00 | 0.00 | 0.00 | 47 | 997.5 |
| 20260504190033 | 47 | 360 | 21.0 | 33.0 | 0.00 | 0.00 | 0.00 | 46 | 997.5 |
| 20260504185534 | 47 | 360 | 22.0 | 35.0 | 0.00 | 0.00 | 0.00 | 46 | 997.5 |
| 20260504185035 | 47 | 360 | 23.0 | 35.0 | 0.00 | 0.00 | 0.00 | 45 | 997.4 |
| 20260504184537 | 48 | 360 | 20.0 | 34.0 | 0.00 | 0.00 | 0.00 | 45 | 997.2 |
| 20260504184030 | 48 | 360 | 23.0 | 35.0 | 0.00 | 0.00 | 0.00 | 45 | 997.3 |
| 20260504183533 | 48 | 360 | 23.0 | 35.0 | 0.00 | 0.00 | 0.00 | 45 | 997.4 |
| 20260504183030 | 48 | 360 | 24.0 | 35.0 | 0.00 | 0.00 | 0.00 | 45 | 997.3 |
| 20260504182528 | 48 | 360 | 24.0 | 42.0 | 0.00 | 0.00 | 0.00 | 45 | 997.2 |
| 20260504182027 | 49 | 360 | 28.0 | 42.0 | 0.00 | 0.00 | 0.00 | 45 | 997.2 |
| 20260504181527 | 49 | 360 | 25.0 | 34.0 | 0.00 | 0.00 | 0.00 | 46 | 997.2 |
| 20260504181027 | 48 | 360 | 20.0 | 36.0 | 0.00 | 0.00 | 0.00 | 47 | 997.1 |
| 20260504180528 | 48 | 360 | 22.0 | 34.0 | 0.00 | 0.00 | 0.00 | 47 | 997.1 |
| 20260504180033 | 48 | 360 | 23.0 | 35.0 | 0.00 | 0.00 | 0.00 | 47 | 997.1 |
| 20260504175527 | 47 | 360 | 27.0 | 38.0 | 0.00 | 0.00 | 0.00 | 46 | 997.1 |
| 20260504175026 | 47 | 360 | 27.0 | 38.0 | 0.00 | 0.00 | 0.00 | 47 | 997.1 |
| 20260504174527 | 47 | 360 | 27.0 | 37.0 | 0.00 | 0.00 | 0.00 | 47 | 997.1 |
| 20260504174125 | 48 | 360 | 27.0 | 35.0 | 0.00 | 0.00 | 0.00 | 46 | 997.0 |
| 20260504173525 | 48 | 360 | 27.0 | 35.0 | 0.00 | 0.00 | 0.00 | 45 | 996.8 |
| 20260504173024 | 48 | 360 | 27.0 | 36.0 | 0.00 | 0.00 | 0.00 | 47 | 997.0 |
| 20260504172524 | 48 | 360 | 23.0 | 36.0 | 0.00 | 0.00 | 0.00 | 48 | 997.0 |
| 20260504172025 | 48 | 360 | 25.0 | 34.0 | 0.00 | 0.00 | 0.00 | 48 | 997.0 |
| 20260504171526 | 47 | 360 | 28.0 | 34.0 | 0.00 | 0.00 | 0.00 | 46 | 997.0 |
| 20260504171024 | 47 | 360 | 22.0 | 38.0 | 0.00 | 0.00 | 0.00 | 49 | 996.9 |
| 20260504170524 | 48 | 360 | 30.0 | 38.0 | 0.00 | 0.00 | 0.00 | 47 | 996.8 |
| 20260504151018 | 47 | 360 | 24.0 | 32.0 | 0.00 | 0.00 | 0.00 | 54 | 996.4 |
| 20260504150519 | 46 | 360 | 24.0 | 32.0 | 0.00 | 0.00 | 0.00 | 54 | 996.4 |
| 20260504141018 | 44 | 360 | 12.0 | 19.0 | 0.00 | 0.00 | 0.00 | 59 | 996.5 |
| 20260504140518 | 44 | 360 | 13.0 | 19.0 | 0.00 | 0.00 | 0.00 | 59 | 996.4 |
| 20260504130515 | 43 | 360 | 11.0 | 15.0 | 0.00 | 0.00 | 0.00 | 61 | 996.2 |
| 20260504110557 | 43 | 360 | 9.0 | 16.0 | 0.00 | 0.00 | 0.00 | 55 | 994.7 |
| 20260504100549 | 45 | 360 | 10.0 | 15.0 | 0.00 | 0.00 | 0.00 | 50 | 994.1 |
| 20260504081531 | 49 | 360 | 14.0 | 20.0 | 0.00 | 0.00 | 0.00 | 56 | 993.2 |
| 20260504081033 | 49 | 360 | 11.0 | 16.0 | 0.00 | 0.00 | 0.00 | 58 | 993.0 |
| 20260504080530 | 49 | 360 | 11.0 | 23.0 | 0.00 | 0.00 | 0.00 | 59 | 993.0 |
| 20260504050506 | 55 | 355 | 10.0 | 13.0 | 0.00 | 0.00 | 0.00 | 45 | 990.3 |
| 20260504050004 | 56 | 5 | 9.0 | 14.0 | 0.00 | 0.00 | 0.00 | 44 | 990.2 |
| 20260504045504 | 56 | 360 | 10.0 | 15.0 | 0.00 | 0.00 | 0.00 | 44 | 990.5 |
| 20260504045003 | 56 | 360 | 10.0 | 15.0 | 0.00 | 0.00 | 0.00 | 44 | 990.5 |
| 20260504044504 | 56 | 355 | 10.0 | 14.0 | 0.00 | 0.00 | 0.00 | 44 | 990.3 |
| 20260504044003 | 56 | 344 | 7.0 | 9.0 | 0.00 | 0.00 | 0.00 | 43 | 990.3 |
| 20260504043001 | 57 | 344 | 6.0 | 10.0 | 0.00 | 0.00 | 0.00 | 42 | 990.1 |
| 20260504042559 | 57 | 342 | 6.0 | 11.0 | 0.00 | 0.00 | 0.00 | 42 | 990.0 |
| 20260504042057 | 58 | 360 | 7.0 | 13.0 | 0.00 | 0.00 | 0.00 | 41 | 990.0 |
| 20260504041556 | 58 | 347 | 9.0 | 15.0 | 0.00 | 0.00 | 0.00 | 40 | 989.9 |
| 20260504041055 | 59 | 355 | 10.0 | 22.0 | 0.00 | 0.00 | 0.00 | 39 | 989.8 |
| 20260504040554 | 60 | 355 | 14.0 | 23.0 | 0.00 | 0.00 | 0.00 | 39 | 989.8 |
| 20260504035552 | 60 | 355 | 15.0 | 23.0 | 0.00 | 0.00 | 0.00 | 38 | 989.4 |
| 20260504035051 | 61 | 355 | 16.0 | 25.0 | 0.00 | 0.00 | 0.00 | 38 | 989.4 |
| 20260504034551 | 62 | 11 | 19.0 | 32.0 | 0.00 | 0.00 | 0.00 | 37 | 989.2 |
| 20260504034047 | 63 | 360 | 22.0 | 35.0 | 0.00 | 0.00 | 0.00 | 36 | 989.2 |
| 20260504033047 | 64 | 360 | 17.0 | 29.0 | 0.00 | 0.00 | 0.00 | 36 | 988.4 |
| 20260504032545 | 63 | 360 | 13.0 | 18.0 | 0.00 | 0.00 | 0.00 | 37 | 988.0 |
| 20260504032045 | 63 | 360 | 12.0 | 16.0 | 0.00 | 0.00 | 0.00 | 37 | 988.0 |
| 20260504031603 | 63 | 360 | 13.0 | 18.0 | 0.00 | 0.00 | 0.00 | 37 | 987.9 |
| 20260504031043 | 63 | 360 | 13.0 | 19.0 | 0.00 | 0.00 | 0.00 | 37 | 987.9 |
| 20260504030543 | 64 | 360 | 13.0 | 19.0 | 0.00 | 0.00 | 0.00 | 37 | 988.0 |
| 20260504030043 | 64 | 360 | 13.0 | 18.0 | 0.00 | 0.00 | 0.00 | 37 | 988.0 |
| 20260504025540 | 64 | 284 | 12.0 | 16.0 | 0.00 | 0.00 | 0.00 | 37 | 987.9 |
| 20260504025039 | 64 | 360 | 11.0 | 16.0 | 0.00 | 0.00 | 0.00 | 36 | 987.8 |
| 20260504024542 | 65 | 288 | 11.0 | 15.0 | 0.00 | 0.00 | 0.00 | 36 | 987.7 |
| 20260504024037 | 66 | 265 | 13.0 | 18.0 | 0.00 | 0.00 | 0.00 | 35 | 987.7 |
| 20260504023036 | 66 | 279 | 13.0 | 20.0 | 0.00 | 0.00 | 0.00 | 34 | 987.8 |
| 20260504022538 | 67 | 287 | 14.0 | 22.0 | 0.00 | 0.00 | 0.00 | 33 | 987.6 |
| 20260504022034 | 67 | 292 | 15.0 | 22.0 | 0.00 | 0.00 | 0.00 | 32 | 987.7 |
| 20260504021533 | 68 | 292 | 14.0 | 23.0 | 0.00 | 0.00 | 0.00 | 30 | 987.7 |
| 20260504021031 | 68 | 281 | 15.0 | 22.0 | 0.00 | 0.00 | 0.00 | 29 | 987.7 |
| 20260504020530 | 69 | 265 | 14.0 | 23.0 | 0.00 | 0.00 | 0.00 | 28 | 987.6 |
| 20260504020030 | 70 | 292 | 16.0 | 29.0 | 0.00 | 0.00 | 0.00 | 27 | 987.5 |
| 20260504015528 | 70 | 360 | 22.0 | 29.0 | 0.00 | 0.00 | 0.00 | 26 | 987.5 |
| 20260504015028 | 70 | 267 | 16.0 | 26.0 | 0.00 | 0.00 | 0.00 | 26 | 987.4 |
| 20260504014526 | 71 | 253 | 19.0 | 26.0 | 0.00 | 0.00 | 0.00 | 25 | 987.3 |
| 20260504014026 | 71 | 260 | 17.0 | 26.0 | 0.00 | 0.00 | 0.00 | 25 | 987.3 |
| 20260504013026 | 71 | 254 | 18.0 | 30.0 | 0.00 | 0.00 | 0.00 | 24 | 987.4 |
| 20260504012524 | 71 | 247 | 16.0 | 24.0 | 0.00 | 0.00 | 0.00 | 24 | 987.5 |
| 20260504012023 | 72 | 252 | 17.0 | 28.0 | 0.00 | 0.00 | 0.00 | 24 | 987.6 |
| 20260504011523 | 72 | 260 | 18.0 | 28.0 | 0.00 | 0.00 | 0.00 | 23 | 987.7 |
| 20260504011021 | 72 | 257 | 21.0 | 28.0 | 0.00 | 0.00 | 0.00 | 23 | 987.7 |
| 20260504010523 | 72 | 256 | 21.0 | 28.0 | 0.00 | 0.00 | 0.00 | 23 | 987.8 |